GW0047 Weather Reports


time (UTC)temp
F
wind
direction
speed
knots
gust
knots
rain 1hr
in
rain 24hr
in
rain mn
in
humidity
%
barometer
mb
20260506015032 74 188 4.3 10.4 0.00 0.06 0.06 48 1009.9
20260506014531 74 176 3.5 15.6 0.00 0.06 0.06 48 1009.9
20260506014453 75 142 3.5 15.6 0.00 0.06 0.06 47 1009.8
20260506013531 75 180 4.3 17.4 0.00 0.06 0.06 47 1009.9
20260506013030 75 190 5.2 17.4 0.00 0.06 0.06 46 1009.9
20260506012530 75 223 4.3 11.3 0.00 0.06 0.06 46 1009.8
20260506012029 75 182 4.3 11.3 0.00 0.06 0.06 46 1009.7
20260506011530 75 189 4.3 10.4 0.00 0.06 0.06 46 1009.7
20260506011031 75 258 3.5 8.7 0.00 0.06 0.06 46 1009.5
20260506010529 76 202 3.5 8.7 0.00 0.06 0.06 46 1009.4
20260506010029 76 148 3.5 13.0 0.00 0.06 0.06 45 1009.5
20260506005532 76 164 4.3 13.0 0.00 0.06 0.06 45 1009.3
20260506005030 76 156 5.2 13.0 0.00 0.06 0.06 44 1009.3
20260506004532 76 153 5.2 13.0 0.00 0.06 0.06 44 1009.4
20260506004030 76 213 4.3 11.3 0.00 0.06 0.06 44 1009.3
20260506003535 76 179 5.2 9.6 0.00 0.06 0.06 44 1009.2
20260506003030 77 194 5.2 14.8 0.00 0.06 0.06 43 1009.1
20260506002530 77 169 4.3 14.8 0.00 0.06 0.06 44 1009.1
20260506002029 77 146 5.2 14.8 0.00 0.06 0.06 44 1009.0
20260506001953 77 223 5.2 14.8 0.00 0.06 0.06 44 1008.8
20260506001030 77 194 4.3 13.9 0.00 0.06 0.06 44 1008.9
20260506000530 77 112 4.3 13.9 0.00 0.06 0.06 44 1008.8
20260506000030 77 186 5.2 14.8 0.00 0.06 0.06 44 1008.8
20260505235529 77 168 5.2 14.8 0.00 0.06 0.06 44 1009.0
20260505235034 77 205 5.2 14.8 0.00 0.06 0.06 44 1008.7
20260505234725 78 188 5.2 14.8 0.00 0.06 0.06 43 1008.7
20260505233528 78 196 6.1 14.8 0.00 0.06 0.06 42 1008.6
20260505233022 78 184 7.0 15.6 0.00 0.06 0.06 41 1008.6
20260505232513 78 234 7.0 15.6 0.00 0.06 0.06 41 1008.5
20260505232005 78 175 6.1 15.6 0.00 0.06 0.06 41 1008.4
20260505231505 78 221 7.0 15.6 0.00 0.06 0.06 41 1008.5
20260505231008 78 259 7.0 16.5 0.00 0.06 0.06 42 1008.4
20260505230504 79 188 6.1 16.5 0.00 0.06 0.06 42 1008.5
20260505230004 79 169 7.0 16.5 0.00 0.06 0.06 41 1008.4
20260505225504 79 182 7.0 16.5 0.00 0.06 0.06 41 1008.5
20260505225003 79 155 6.1 15.6 0.00 0.06 0.06 40 1008.3
20260505224503 80 208 6.1 15.6 0.00 0.06 0.06 40 1008.4
20260505224432 80 205 6.1 14.8 0.00 0.06 0.06 40 1008.3
20260505223503 80 190 6.1 16.5 0.00 0.06 0.06 41 1008.4
20260505223007 80 123 6.1 16.5 0.00 0.06 0.06 40 1008.2
20260505222508 80 225 7.0 17.4 0.00 0.06 0.06 41 1008.3
20260505222007 80 176 7.8 17.4 0.00 0.06 0.06 40 1008.2
20260505221939 80 225 7.8 16.5 0.00 0.06 0.06 41 1007.9
20260505221006 80 145 7.8 16.5 0.00 0.06 0.06 41 1008.0
20260505220501 80 194 7.0 16.5 0.00 0.06 0.06 41 1008.1
20260505220008 80 173 6.1 13.9 0.00 0.06 0.06 41 1008.1
20260505215502 81 163 5.2 15.6 0.00 0.06 0.06 41 1008.1
20260505215001 81 169 6.1 15.6 0.00 0.06 0.06 41 1008.3
20260505214730 80 152 7.8 15.6 0.00 0.06 0.06 42 1008.3
20260505214004 80 178 7.8 18.2 0.00 0.06 0.06 41 1008.2
20260505213513 81 150 7.0 18.2 0.00 0.06 0.06 40 1008.3
20260505213434 81 154 7.0 16.5 0.00 0.06 0.06 41 1008.3
20260505212501 81 156 7.0 18.2 0.00 0.06 0.06 41 1008.3
20260505212433 81 121 7.0 18.2 0.00 0.06 0.06 41 1008.3
20260505211506 80 157 7.8 20.0 0.00 0.06 0.06 41 1008.2
20260505211005 80 266 7.8 20.0 0.00 0.06 0.06 40 1008.1
20260505210504 81 197 7.0 17.4 0.00 0.06 0.06 40 1008.0
20260505210002 81 200 7.0 15.6 0.00 0.06 0.06 41 1008.0
20260505205928 81 140 7.8 17.4 0.00 0.06 0.06 42 1008.1
20260505205430 81 185 7.8 17.4 0.00 0.06 0.06 40 1008.1
20260505204502 81 184 7.0 15.6 0.00 0.06 0.06 40 1008.1
20260505204001 81 178 6.1 14.8 0.00 0.06 0.06 39 1008.1
20260505203926 81 202 7.0 14.8 0.00 0.06 0.06 39 1007.9
20260505203005 81 135 7.8 19.1 0.00 0.06 0.06 38 1007.9
20260505202501 81 167 7.0 19.1 0.00 0.06 0.06 38 1008.1
20260505202408 82 148 7.0 15.6 0.00 0.06 0.06 39 1008.0
20260505201506 82 188 6.1 16.5 0.00 0.06 0.06 38 1008.1
20260505201005 82 242 6.1 16.5 0.00 0.06 0.06 39 1008.2
20260505200506 82 217 6.1 17.4 0.00 0.06 0.06 39 1008.1
20260505200006 81 195 6.1 17.4 0.00 0.06 0.06 40 1008.2
20260505195501 82 194 7.0 17.4 0.00 0.06 0.06 40 1008.3
20260505195153 82 213 8.7 17.4 0.00 0.06 0.06 40 1008.2
20260505194428 82 173 7.0 14.8 0.00 0.06 0.06 40 1008.3
20260505193508 82 223 7.0 17.4 0.00 0.06 0.06 41 1008.3
20260505193005 81 171 7.0 17.4 0.00 0.06 0.06 41 1008.2
20260505192507 81 153 7.8 19.1 0.00 0.06 0.06 42 1008.3
20260505192001 81 178 7.0 19.1 0.00 0.06 0.06 42 1008.5
20260505191507 81 206 6.1 13.0 0.00 0.06 0.06 42 1008.4
20260505191000 81 182 6.1 13.0 0.00 0.06 0.06 42 1008.5
20260505190501 82 222 7.0 13.0 0.00 0.06 0.06 40 1008.4
20260505190027 82 250 6.1 13.0 0.00 0.06 0.06 40 1008.5
20260505185842 82 205 5.2 13.0 0.00 0.06 0.06 39 1008.7
20260505185025 82 177 4.3 10.4 0.00 0.06 0.06 41 1008.6
20260505184523 81 240 5.2 10.4 0.00 0.06 0.06 41 1008.6
20260505184018 81 156 5.2 10.4 0.00 0.06 0.06 42 1008.7
20260505183529 81 182 5.2 13.0 0.00 0.06 0.06 42 1008.8
20260505183045 82 148 7.0 13.0 0.00 0.06 0.06 42 1008.9
20260505183026 81 250 6.1 13.0 0.00 0.06 0.06 41 1008.8
20260505182013 82 193 6.1 14.8 0.00 0.06 0.06 38 1008.9
20260505181518 83 226 5.2 14.8 0.00 0.06 0.06 38 1009.0
20260505181018 82 157 7.0 15.6 0.00 0.06 0.06 36 1009.2
20260505180750 82 205 7.8 15.6 0.00 0.06 0.06 38 1009.2
20260505180523 82 205 7.8 15.6 0.00 0.06 0.06 38 1009.2
20260505180017 82 190 6.1 14.8 0.00 0.06 0.06 37 1009.3
20260505175504 82 143 5.2 15.6 0.00 0.06 0.06 40 1009.5
20260505175023 81 219 7.8 17.4 0.00 0.06 0.06 39 1009.4
20260505175019 82 198 6.1 15.6 0.00 0.06 0.06 40 1009.5
20260505174006 81 217 7.0 17.4 0.00 0.06 0.06 41 1009.5
20260505173503 81 175 6.1 13.0 0.00 0.06 0.06 41 1009.5
20260505173018 81 185 7.0 13.9 0.00 0.06 0.06 41 1009.7
20260505172504 81 206 7.0 14.8 0.00 0.06 0.06 41 1009.6
20260505172002 80 148 6.1 14.8 0.00 0.06 0.06 43 1009.5
20260505171511 80 203 6.1 12.2 0.00 0.06 0.06 44 1009.6
20260505171507 80 223 6.1 12.2 0.00 0.06 0.06 44 1009.6
20260505170830 80 129 5.2 11.3 0.00 0.06 0.06 46 1009.6
20260505170002 80 213 4.3 13.0 0.00 0.06 0.06 45 1009.7
20260505165502 80 189 4.3 13.0 0.00 0.06 0.06 48 1009.8
20260505165007 79 259 5.2 14.8 0.00 0.06 0.06 47 1010.0
20260505164502 79 211 5.2 14.8 0.00 0.06 0.06 47 1010.1
20260505164004 79 254 4.3 12.2 0.00 0.06 0.06 46 1010.2
20260505163504 79 242 5.2 12.2 0.00 0.06 0.06 47 1010.3
20260505162957 79 141 5.2 12.2 0.00 0.06 0.06 49 1010.4
20260505162446 78 202 5.2 12.2 0.00 0.06 0.06 49 1010.3
20260505161945 78 227 6.1 13.9 0.00 0.06 0.06 47 1010.4
20260505161438 78 192 6.1 13.9 0.00 0.06 0.06 48 1010.4
20260505160935 78 269 5.2 13.0 0.00 0.06 0.06 52 1010.4
20260505160431 78 289 5.2 13.0 0.00 0.06 0.06 49 1010.4
20260505152935 77 180 3.5 10.4 0.00 0.06 0.06 51 1010.7
20260505152437 77 198 3.5 8.7 0.00 0.06 0.06 51 1010.7
20260505151930 76 182 3.5 8.7 0.00 0.06 0.06 52 1010.8
20260505151815 76 284 3.5 9.6 0.00 0.06 0.06 53 1010.7
20260505151320 76 218 3.5 9.6 0.00 0.06 0.06 53 1010.8
20260505150435 75 201 3.5 6.1 0.00 0.06 0.06 53 1010.8
20260505124914 65 187 2.6 6.1 0.00 0.06 0.06 70 1011.6
20260505124413 65 179 1.7 6.1 0.00 0.06 0.06 70 1011.6
20260505124334 65 199 0.9 2.6 0.00 0.06 0.06 73 1011.6
20260505123416 64 239 0.9 2.6 0.00 0.06 0.06 73 1011.5
20260505122912 64 145 0.9 2.6 0.00 0.06 0.06 75 1011.4
20260505122417 63 176 0.9 2.6 0.00 0.06 0.06 75 1011.5
20260505121910 62 222 0.9 2.6 0.00 0.06 0.06 76 1011.5
20260505121410 62 221 0.9 2.6 0.00 0.06 0.06 78 1011.4
20260505120914 61 221 0.9 2.6 0.00 0.06 0.06 79 1011.5
20260505120411 60 257 0.9 2.6 0.00 0.06 0.06 81 1011.6
20260505115914 60 269 0.0 1.7 0.00 0.06 0.06 82 1011.6
20260505115410 59 202 0.9 2.6 0.00 0.06 0.06 82 1011.4
20260505114912 59 0 0.0 2.6 0.00 0.06 0.06 84 1011.3
20260505114412 58 159 0.9 2.6 0.00 0.06 0.06 85 1011.3
20260505113914 58 145 0.9 2.6 0.00 0.06 0.06 86 1011.3
20260505113601 57 165 0.9 2.6 0.00 0.06 0.06 87 1011.1
20260505112410 56 159 0.9 3.5 0.00 0.06 0.06 89 1011.2
20260505112328 56 159 0.9 3.5 0.00 0.06 0.06 89 1011.1
20260505111410 56 169 0.0 3.5 0.00 0.06 0.06 90 1011.1
20260505110912 55 0 0.9 3.5 0.00 0.06 0.06 91 1011.2
20260505110414 55 244 0.9 3.5 0.00 0.06 0.06 92 1011.3
20260505101406 54 116 0.0 0.9 0.00 0.06 0.06 91 1010.8
20260505101317 54 116 0.0 1.7 0.00 0.06 0.06 91 1010.8
20260505100402 54 116 0.9 1.7 0.00 0.06 0.06 90 1010.8
20260505100327 54 116 0.0 1.7 0.00 0.06 0.06 90 1010.9
20260505095405 54 116 0.0 1.7 0.00 0.06 0.06 90 1010.8
20260505094903 55 116 0.0 1.7 0.00 0.06 0.06 89 1010.8
20260505094403 55 116 0.0 1.7 0.00 0.06 0.06 89 1010.8
20260505093901 55 116 0.9 2.6 0.05 0.06 0.06 89 1010.9
20260505093404 55 115 0.9 2.6 0.06 0.06 0.06 89 1010.9
20260505093322 55 111 0.0 1.7 0.06 0.06 0.06 89 1010.9
20260505092815 55 115 0.0 1.7 0.06 0.06 0.06 88 1011.0
20260505091859 56 115 0.9 1.7 0.06 0.06 0.06 88 1011.1
20260505091354 56 115 0.9 1.7 0.06 0.06 0.06 87 1011.0
20260505091302 56 123 0.0 1.7 0.06 0.06 0.06 85 1011.0
20260505090340 56 123 0.0 2.6 0.06 0.06 0.06 84 1011.0
20260505090023 56 123 0.0 2.6 0.06 0.06 0.06 83 1011.1
20260505084832 58 112 0.9 2.6 0.06 0.06 0.06 80 1011.1
20260505084739 59 107 0.9 2.6 0.06 0.06 0.05 77 1011.2
20260505083835 60 101 0.9 2.6 0.01 0.01 0.01 72 1011.0
20260505083332 60 277 0.9 2.6 0.00 0.00 0.00 68 1011.1
20260505082837 60 277 0.9 2.6 0.00 0.00 0.00 66 1011.1
20260505082333 60 269 0.9 2.6 0.00 0.00 0.00 66 1011.1
20260505081830 60 319 0.9 2.6 0.00 0.00 0.00 67 1010.9
20260505081332 60 286 0.9 2.6 0.00 0.00 0.00 67 1010.9
20260505080833 60 294 0.9 1.7 0.00 0.00 0.00 67 1010.7
20260505080332 60 209 0.0 1.7 0.00 0.00 0.00 67 1010.2
20260505075830 61 209 0.0 0.9 0.00 0.00 0.00 66 1010.4
20260505075332 61 209 0.0 1.7 0.00 0.00 0.00 65 1010.4
20260505074835 61 205 0.0 1.7 0.00 0.00 0.00 65 1010.3
20260505074333 61 205 0.9 4.3 0.00 0.00 0.00 64 1010.2
20260505073830 61 205 0.9 4.3 0.00 0.00 0.00 63 1010.4
20260505073329 61 222 0.9 3.5 0.00 0.00 0.00 63 1010.5
20260505072829 61 212 0.9 4.3 0.00 0.00 0.00 63 1010.6
20260505072319 62 192 0.9 4.3 0.00 0.00 0.00 62 1010.5
20260505071817 62 233 0.9 4.3 0.00 0.00 0.00 62 1010.5
20260505071312 62 246 1.7 4.3 0.00 0.00 0.00 62 1010.5
20260505070809 62 223 1.7 4.3 0.00 0.00 0.00 61 1010.5
20260505070310 62 236 1.7 5.2 0.00 0.00 0.00 61 1010.4
20260505070242 62 213 1.7 5.2 0.00 0.00 0.00 61 1010.6
20260505065309 62 233 1.7 4.3 0.00 0.00 0.00 61 1010.5
20260505064809 62 200 1.7 4.3 0.00 0.00 0.00 61 1010.5
20260505064507 62 194 1.7 4.3 0.00 0.00 0.00 61 1010.6
20260505063309 62 198 1.7 3.5 0.00 0.00 0.00 60 1010.6
20260505062811 62 186 1.7 3.5 0.00 0.00 0.00 60 1010.6
20260505062722 61 225 1.7 3.5 0.00 0.00 0.00 61 1010.7
20260505062000 61 242 1.7 3.5 0.00 0.00 0.00 61 1010.7
20260505060810 61 192 0.9 3.5 0.00 0.00 0.00 60 1010.6
20260505060330 61 175 0.9 3.5 0.00 0.00 0.00 60 1010.8
20260505060236 61 213 0.9 3.5 0.00 0.00 0.00 59 1010.6
20260505055325 61 150 0.9 3.5 0.00 0.00 0.00 59 1010.5
20260505054829 61 209 0.0 2.6 0.00 0.00 0.00 59 1010.7
20260505054322 61 150 0.0 2.6 0.00 0.00 0.00 58 1010.6
20260505053821 62 150 0.0 3.5 0.00 0.00 0.00 58 1010.7
20260505053315 62 142 0.0 3.5 0.00 0.00 0.00 57 1010.6
20260505052749 62 250 0.0 3.5 0.00 0.00 0.00 57 1010.7
20260505052244 63 250 0.9 3.5 0.00 0.00 0.00 56 1010.7
20260505051742 63 250 0.9 3.5 0.00 0.00 0.00 55 1010.5
20260505051300 63 173 1.7 9.6 0.00 0.00 0.00 55 1010.5
20260505050758 63 219 1.7 9.6 0.00 0.00 0.00 55 1010.5
20260505050259 63 212 2.6 9.6 0.00 0.00 0.00 55 1010.5
20260505041754 64 181 1.7 7.0 0.00 0.00 0.00 53 1010.5
20260505041248 64 211 1.7 7.0 0.00 0.00 0.00 52 1010.5
20260505041007 64 217 1.7 7.0 0.00 0.00 0.00 52 1010.6
20260505040752 64 217 1.7 7.0 0.00 0.00 0.00 52 1010.6
20260505040241 64 240 1.7 7.8 0.00 0.00 0.00 52 1010.4
20260505035742 65 236 1.7 7.8 0.00 0.00 0.00 51 1010.1
20260505035240 65 205 1.7 7.8 0.00 0.00 0.00 51 1010.2
20260505034736 65 199 1.7 7.8 0.00 0.00 0.00 51 1010.1
20260505034236 65 230 1.7 5.2 0.00 0.00 0.00 51 1010.0
20260505033736 65 220 1.7 4.3 0.00 0.00 0.00 50 1010.0
20260505033506 65 167 1.7 5.2 0.00 0.00 0.00 50 1010.1
20260505033250 65 167 1.7 5.2 0.00 0.00 0.00 50 1010.1
20260505033000 65 182 1.7 5.2 0.00 0.00 0.00 50 1010.2
20260505032251 65 197 1.7 7.0 0.00 0.00 0.00 50 1010.2
20260505031734 66 233 1.7 7.0 0.00 0.00 0.00 49 1010.2
20260505031721 66 155 2.6 7.8 0.00 0.00 0.00 49 1010.2
20260505030730 66 217 2.6 7.8 0.00 0.00 0.00 49 1010.3
20260505030634 66 164 1.7 6.1 0.00 0.00 0.00 49 1010.4
20260505025941 66 167 1.7 6.1 0.00 0.00 0.00 49 1010.4
20260505024732 66 223 1.7 7.0 0.00 0.00 0.00 48 1010.3
20260505024237 66 205 1.7 7.0 0.00 0.00 0.00 48 1010.4
20260505023731 66 213 1.7 5.2 0.00 0.00 0.00 48 1010.4
20260505023459 67 222 1.7 8.7 0.00 0.00 0.00 47 1010.4
20260505022735 67 190 3.5 8.7 0.00 0.00 0.00 47 1010.5
20260505022239 67 182 3.5 8.7 0.00 0.00 0.00 47 1010.5
20260505021730 67 215 4.3 9.6 0.00 0.00 0.00 47 1010.5
20260505021552 67 225 3.5 9.6 0.00 0.00 0.00 47 1010.5
20260505020956 67 190 3.5 8.7 0.00 0.00 0.00 47 1010.6
20260505020739 67 190 3.5 8.7 0.00 0.00 0.00 47 1010.6
20260505020234 67 150 2.6 7.8 0.00 0.00 0.00 48 1010.5
20260505015731 67 165 2.6 7.8 0.00 0.00 0.00 47 1010.6